This demonstration page uses our WeatherBlox Daily Observations layout. Learn more.

Left ArrowRight Arrow

Hourly Observations for February 13, 2016

Temp ( °F °C ) Dew Point ( °F °C ) Humidity (%) Winds ( mph kmh ) Pressure ( in mb ) Visibility ( mi km ) Precip ( " mm )
12:59 am 00:59 Mostly Cloudy 29 -1.7 22 -5.6 75 75 WNW 10 17 30.03 1017 10 16 0.00 0.00
1:59 am 01:59 Partly Cloudy 28 -2.2 21 -6.1 75 75 WNW 8 13 30.02 1017 10 16 0.00 0.00
2:59 am 02:59 Partly Cloudy 28 -2.2 22 -5.6 78 78 NW 9 15 30.04 1017 10 16 0.00 0.00
3:59 am 03:59 Partly Cloudy 29 -1.7 21 -6.1 72 72 NNW 14 22 30.05 1018 10 16 0.00 0.00
4:59 am 04:59 Mostly Cloudy 29 -1.7 19 -7.2 66 66 NNW 10 17 30.07 1018 10 16 0.00 0.00
5:59 am 05:59 Partly Cloudy 27 -2.8 18 -7.8 69 69 WNW 9 15 30.10 1019 10 16 0.00 0.00
6:59 am 06:59 Mostly Cloudy 28 -2.2 19 -7.2 69 69 NW 16 26 30.16 1021 10 16 0.00 0.00
7:59 am 07:59 Partly Cloudy 27 -2.8 13 -10.6 55 55 NW 18 30 30.20 1023 10 16 0.00 0.00
8:59 am 08:59 Partly Cloudy 28 -2.2 9 -12.8 44 44 NNW 28 44 30.22 1023 10 16 0.00 0.00
9:59 am 09:59 Mostly Sunny 29 -1.7 7 -13.9 39 39 NNW 23 37 30.24 1024 10 16 0.00 0.00
10:59 am 10:59 Partly Cloudy 30 -1.1 4 -15.6 33 33 NNW 18 30 30.26 1025 10 16 0.00 0.00
11:59 am 11:59 Partly Cloudy 32 0 4 -15.6 30 30 WNW 17 28 30.26 1025 10 16 0.00 0.00
12:59 pm 12:59 Mostly Sunny 32 0 1 -17.2 26 26 NW 23 37 30.24 1024 10 16 0.00 0.00
1:59 pm 13:59 Partly Cloudy 32 0 0 -17.8 25 25 WNW 24 39 30.24 1024 10 16 0.00 0.00
2:59 pm 14:59 Partly Cloudy 33 0.6 1 -17.2 25 25 NW 21 33 30.24 1024 10 16 0.00 0.00
3:59 pm 15:59 Partly Cloudy 32 0 -3 -19.4 22 22 WNW 25 41 30.26 1025 10 16 0.00 0.00
4:59 pm 16:59 Partly Cloudy 30 -1.1 -1 -18.3 26 26 NW 18 30 30.28 1026 10 16 0.00 0.00
5:59 pm 17:59 Mostly Clear 29 -1.7 -3 -19.4 25 25 NW 21 33 30.32 1027 10 16 0.00 0.00
6:59 pm 18:59 Clear 28 -2.2 -2 -18.9 27 27 NNW 20 31 30.35 1028 10 16 0.00 0.00
7:59 pm 19:59 Clear 25 -3.9 0 -17.8 33 33 N 17 28 30.38 1029 10 16 0.00 0.00
8:59 pm 20:59 Clear 24 -4.4 -1 -18.3 33 33 NNW 17 28 30.42 1030 10 16 0.00 0.00
9:59 pm 21:59 Mostly Clear 22 -5.6 -3 -19.4 33 33 NNW 21 33 30.44 1031 10 16 0.00 0.00
10:59 pm 22:59 Clear 21 -6.1 -2 -18.9 36 36 NW 17 28 30.45 1031 10 16 0.00 0.00
11:59 pm 23:59 Mostly Clear 20 -6.7 -3 -19.4 36 36 NNW 15 24 30.46 1032 10 16 0.00 0.00

Powered by AerisWeather